1530972000.62,9984,22.94,74158.8,20.89,-11.41,-10.97,0,*78
1530972001.87,9985,22.94,74158.3,20.89,-11.67,-11.41,0,*77
1530972003.08,9986,22.94,74158.5,20.91,-12.47,-12.15,0,*7E
1530972004.32,9987,22.94,74158.0,20.91,-12.83,-12.61,0,*74
1530972005.55,9988,22.94,74156.5,20.91,-12.21,-11.97,0,*79
1530972006.77,9989,22.94,74160.5,20.91,-12.11,-12.21,0,*75
1530972007.97,9990,22.94,74160.5,20.91,-12.47,-12.43,0,*7A
1530972009.18,9991,22.94,74156.5,20.91,-12.61,-12.47,0,*7B
1530972010.43,9992,22.94,74162.3,20.91,-11.67,-11.63,0,*78
1530972011.63,9993,22.94,74156.0,20.91,-11.15,-11.01,0,*78
1530972012.85,9994,22.94,74158.3,20.93,-10.67,-10.53,0,*7F
1530972014.05,9995,22.94,74160.0,20.93,-10.53,-10.35,0,*79
1530972015.27,9996,22.94,74158.5,20.95,-11.01,-10.89,0,*7D
1530972016.5,9997,22.94,74158.3,20.95,-11.45,-11.45,0,*7D
1530972017.77,9998,22.94,74156.5,20.95,-11.77,-11.89,0,*73
1530972018.99,9999,22.94,74156.5,20.97,-12.15,-12.29,0,*7E
1530972020.24,10000,22.94,74160.0,20.95,-11.59,-11.45,0,*4F
1530972021.52,10001,22.94,74156.8,20.95,-11.85,-11.97,0,*40
1530972022.76,10002,22.94,74158.5,20.97,-11.97,-11.77,0,*4C
1530972023.98,10003,22.94,74158.0,20.97,-12.43,-12.53,0,*42
1530972025.21,10004,22.94,74162.3,20.95,-12.39,-12.25,0,*4B
1530972026.48,10005,22.94,74158.8,20.95,-11.77,-11.67,0,*46
1530972027.73,10006,22.94,74160.8,20.95,-11.33,-11.19,0,*4C
1530972028.93,10007,22.94,74158.5,20.97,-10.57,-10.57,0,*47
1530972030.13,10008,22.94,74162.0,20.97,-10.49,-10.49,0,*48
1530972031.36,10009,22.94,74156.8,20.99,-10.19,-10.45,0,*4E
1530972032.58,10010,22.94,74160.5,21.01,-10.49,-10.79,0,*4C
1530972033.78,10011,22.94,74160.8,21.01,-10.01,-10.53,0,*49
1530972034.99,10012,22.94,74160.5,21.01,-9.05,-9.57,0,*4A
1530972036.23,10013,22.94,74156.5,21.03,-9.53,-10.09,0,*79
1530972037.44,10014,22.94,74162.8,21.05,-8.97,-9.61,0,*47
1530972038.69,10015,22.94,74162.8,21.07,-9.75,-10.41,0,*73
1530972039.91,10016,22.94,74160.3,21.11,-9.79,-10.35,0,*78
1530972041.16,10017,22.94,74160.5,21.11,-9.79,-10.41,0,*7A
1530972042.36,10018,22.94,74160.5,21.13,-10.31,-11.01,0,*46
1530972043.61,10019,22.94,74158.8,21.15,-10.23,-10.79,0,*4C
1530972044.8,10020,22.94,74156.3,21.13,-10.45,-11.01,0,*4E
1530972046.02,10021,22.94,74156.5,21.13,-12.57,-13.23,0,*4C
1530972047.26,10022,22.94,74162.5,21.13,-11.85,-12.15,0,*47
1530972048.48,10023,22.94,74158.8,21.13,-11.97,-12.43,0,*46
1530972049.73,10024,22.94,74158.5,21.11,-12.03,-12.35,0,*4C
1530972051.0,10025,22.94,74162.3,21.07,-12.35,-12.65,0,*4A
1530972052.25,10026,22.94,74162.0,21.11,-13.19,-13.37,0,*47
1530972053.53,10027,22.94,74158.8,21.11,-13.37,-13.61,0,*49
1530972054.77,10028,22.94,74158.8,21.05,-13.01,-13.01,0,*40
1530972055.96,10029,22.94,74156.5,21.05,-13.23,-13.11,0,*40
1530972057.18,10030,22.94,74158.5,21.03,-12.43,-12.43,0,*4F
1530972058.4,10031,22.94,74162.5,21.03,-13.11,-13.15,0,*4A
1530972059.65,10032,22.94,74160.8,21.03,-13.69,-13.61,0,*45
1530972060.93,10033,22.94,74158.8,21.03,-11.89,-11.63,0,*48
1530972062.2,10034,22.94,74158.8,21.03,-11.77,-11.63,0,*4E
1530972063.42,10035,22.94,74158.5,21.07,-12.39,-12.21,0,*47
1530972064.65,10036,22.94,74158.8,21.03,-12.89,-12.89,0,*49
1530972065.87,10037,22.94,74158.5,21.03,-12.43,-12.29,0,*44
1530972067.12,10038,22.94,74160.8,21.03,-12.15,-12.03,0,*40
1530972068.37,10039,22.94,74160.8,21.03,-11.63,-11.45,0,*42
1530972069.61,10040,22.94,74160.3,21.05,-11.55,-11.29,0,*45
1530972070.84,10041,22.94,74158.3,21.05,-12.89,-12.71,0,*48
1530972072.05,10042,22.94,74160.5,21.05,-12.97,-12.61,0,*45
1530972073.29,10043,22.94,74156.3,21.05,-11.89,-11.59,0,*40
1530972074.53,10044,22.94,74160.5,21.05,-11.55,-11.33,0,*4A
1530972075.77,10045,22.94,74160.3,21.05,-11.85,-11.59,0,*4A
1530972077.04,10046,22.94,74162.8,21.11,-11.51,-11.33,0,*49
1530972078.3,10047,22.94,74160.3,21.11,-13.29,-13.19,0,*4F
1530972079.55,10048,22.94,74156.5,21.07,-12.93,-12.79,0,*40
1530972080.77,10049,22.94,74162.0,21.07,-13.07,-13.07,0,*45
1530972081.96,10050,22.94,74160.5,21.05,-12.43,-12.29,0,*43
1530972083.2,10051,22.94,74162.0,21.05,-12.83,-12.75,0,*47
1530972084.39,10052,22.94,74160.3,21.05,-13.73,-13.69,0,*46
1530972085.58,10053,22.94,74160.0,21.05,-12.97,-12.89,0,*43
1530972086.83,10054,22.94,74156.3,21.03,-12.53,-12.39,0,*41
1530972088.05,10055,22.94,74162.3,21.03,-12.03,-12.03,0,*4C
1530972089.25,10056,22.94,74158.8,21.05,-11.41,-11.19,0,*44
1530972090.44,10057,22.94,74158.8,21.05,-11.15,-11.01,0,*4D
1530972091.69,10058,22.94,74158.8,21.05,-11.29,-11.07,0,*4B
1530972092.98,10059,22.94,74160.8,21.11,-10.67,-10.41,0,*47
1530972094.22,10060,22.94,74158.5,21.11,-11.37,-11.19,0,*45
1530972095.48,10061,22.94,74158.0,21.11,-10.67,-10.49,0,*44
1530972096.73,10062,22.94,74160.3,21.13,-11.85,-11.63,0,*41
1530972097.96,10063,22.94,74162.3,21.15,-12.25,-12.03,0,*4A
1530972099.2,10064,22.94,74158.8,21.15,-12.39,-12.11,0,*43
1530972100.45,10065,22.94,74158.0,21.15,-12.89,-12.61,0,*4E
1530972101.69,10066,22.94,74160.5,21.15,-13.69,-13.29,0,*4F
1530972102.94,10067,22.94,74162.0,21.15,-12.57,-12.25,0,*4F
1530972104.16,10068,22.94,74160.5,21.15,-12.39,-12.03,0,*4C
1530972105.4,10069,22.94,74162.0,21.15,-13.61,-13.43,0,*44
1530972106.63,10070,22.94,74162.3,21.13,-12.75,-12.47,0,*4B
1530972107.87,10071,22.94,74160.3,21.13,-13.01,-12.61,0,*4C
1530972109.09,10072,22.94,74162.0,21.13,-12.89,-12.57,0,*4B
1530972110.31,10073,22.94,74162.8,21.13,-12.47,-12.15,0,*4E
1530972111.56,10074,22.94,74162.3,21.15,-12.25,-11.89,0,*4D
1530972112.83,10075,22.94,74160.3,21.15,-11.97,-11.73,0,*43
1530972114.05,10076,22.94,74162.3,21.15,-13.47,-13.15,0,*4D
1530972115.27,10077,22.94,74158.5,21.15,-14.23,-13.73,0,*49
1530972116.5,10078,22.94,74160.3,21.15,-14.69,-14.43,0,*4C
1530972117.75,10079,22.94,74158.8,21.11,-15.07,-14.75,0,*45
1530972118.98,10080,22.94,74160.3,21.11,-13.51,-13.07,0,*44
1530972120.25,10081,22.94,74160.0,21.07,-11.81,-11.29,0,*43
1530972121.5,10082,22.94,74162.8,21.11,-10.79,-10.35,0,*4D
1530972122.69,10083,22.94,74162.5,21.13,-10.23,-9.67,0,*7E
1530972123.91,10084,22.94,74162.8,21.15,-10.49,-9.93,0,*78
1530972125.16,10085,22.94,74162.0,21.19,-10.71,-10.23,0,*4D
1530972126.42,10086,22.94,74162.8,21.19,-10.41,-9.83,0,*7F
1530972127.62,10087,23.0,74166.0,21.21,-9.83,-9.31,0,*4A
1530972128.83,10088,22.94,74160.3,21.25,-10.27,-9.67,0,*74
1530972130.07,10089,22.94,74162.3,21.27,-10.97,-10.45,0,*44
1530972131.28,10090,22.94,74162.3,21.29,-10.97,-10.57,0,*41
1530972132.52,10091,22.94,74164.3,21.31,-10.93,-10.53,0,*49
1530972133.76,10092,22.94,74162.0,21.31,-10.89,-10.31,0,*45
1530972135.03,10093,22.94,74162.5,21.31,-10.79,-10.35,0,*4F
1530972136.3,10094,22.94,74162.3,21.31,-12.21,-11.89,0,*41
1530972137.57,10095,22.94,74160.8,21.35,-13.37,-12.97,0,*4E
1530972138.85,10096,22.94,74160.5,21.35,-13.83,-13.37,0,*49
1530972140.12,10097,22.94,74160.8,21.31,-14.05,-13.65,0,*42
1530972141.41,10098,22.94,74162.5,21.31,-14.43,-14.01,0,*4A
1530972142.64,10099,22.94,74162.8,21.29,-14.23,-13.79,0,*4C
1530972143.89,10100,22.94,74160.0,21.25,-14.43,-13.79,0,*47
1530972145.11,10101,22.94,74158.5,21.25,-14.15,-13.51,0,*4F
1530972146.34,10102,22.94,74162.8,21.25,-12.39,-12.07,0,*46
1530972147.61,10103,22.94,74160.8,21.25,-11.97,-11.55,0,*44
1530972148.87,10104,22.94,74160.0,21.27,-12.21,-11.67,0,*4E
1530972150.16,10105,22.94,74158.8,21.27,-11.33,-10.71,0,*49
1530972151.42,10106,22.94,74162.0,21.27,-10.75,-10.19,0,*47
1530972152.69,10107,23.0,74164.5,21.31,-10.67,-10.05,0,*4F
1530972153.92,10108,22.94,74162.8,21.31,-10.53,-9.97,0,*74
1530972155.16,10109,22.94,74158.5,21.35,-10.97,-10.35,0,*49
1530972156.43,10110,22.94,74160.5,21.39,-11.23,-10.71,0,*43
1530972157.66,10111,22.94,74160.5,21.39,-10.85,-10.23,0,*48
1530972158.89,10112,22.94,74158.5,21.43,-10.53,-9.93,0,*7E
1530972160.12,10113,22.94,74160.3,21.43,-10.49,-9.93,0,*74
1530972161.32,10114,22.94,74162.3,21.45,-10.35,-9.89,0,*75
1530972162.58,10115,22.94,74162.0,21.47,-10.09,-9.49,0,*75
1530972163.77,10116,23.0,74162.8,21.49,-10.01,-9.31,0,*7F
1530972164.97,10117,22.94,74162.3,21.53,-10.31,-9.79,0,*7A
1530972166.17,10118,22.94,74162.8,21.53,-10.31,-9.67,0,*7A
1530972167.4,10119,22.94,74162.3,21.57,-10.27,-9.75,0,*7B
1530972168.64,10120,22.94,74162.3,21.59,-11.23,-10.67,0,*41
1530972169.87,10121,22.94,74160.0,21.61,-11.19,-10.53,0,*45
1530972171.15,10122,22.94,74158.3,21.61,-11.89,-11.37,0,*4C
1530972172.44,10123,22.94,74162.8,21.61,-11.59,-11.07,0,*43
1530972173.69,10124,23.0,74160.8,21.61,-10.63,-9.97,0,*7C
1530972174.94,10125,23.0,74164.3,21.63,-11.29,-10.93,0,*4C
1530972176.22,10126,22.94,74160.5,21.65,-11.55,-10.79,0,*46
1530972177.45,10127,23.0,74160.3,21.67,-10.67,-9.93,0,*79
1530972178.67,10128,22.94,74162.5,21.67,-10.53,-9.83,0,*70
1530972179.91,10129,22.94,74160.0,21.67,-10.67,-10.01,0,*44
1530972181.12,10130,22.94,74162.0,21.71,-10.49,-9.79,0,*70
1530972182.35,10131,23.0,74162.8,21.71,-10.75,-10.09,0,*41
1530972183.61,10132,22.94,74160.0,21.73,-11.45,-11.07,0,*4D
1530972184.86,10133,22.94,74162.8,21.73,-12.83,-12.25,0,*46
1530972186.12,10134,23.0,74162.3,21.73,-12.57,-12.03,0,*4C
1530972187.37,10135,22.94,74160.3,21.75,-12.11,-11.59,0,*45
1530972188.62,10136,22.94,74162.8,21.73,-12.29,-11.85,0,*4A
1530972189.87,10137,23.0,74166.0,21.73,-12.39,-11.85,0,*4A
1530972191.1,10138,22.94,74160.3,21.73,-13.15,-12.47,0,*47
1530972192.33,10139,23.0,74160.8,21.71,-11.77,-11.15,0,*46
1530972193.59,10140,23.0,74164.0,21.73,-11.29,-10.57,0,*46
1530972194.79,10141,22.94,74162.5,21.75,-11.15,-10.53,0,*4A
1530972196.05,10142,23.0,74162.5,21.75,-12.53,-11.73,0,*4B
1530972197.27,10143,22.94,74160.5,21.75,-11.81,-11.23,0,*43
1530972198.48,10144,23.0,74160.5,21.79,-11.45,-10.93,0,*4A
1530972199.76,10145,23.0,74160.8,21.81,-11.77,-11.29,0,*4D
1530972201.02,10146,22.94,74158.0,21.81,-13.23,-12.71,0,*43
1530972202.29,10147,22.94,74156.8,21.79,-12.53,-11.93,0,*4C
1530972203.53,10148,22.94,74162.3,21.79,-12.29,-11.89,0,*45
1530972204.81,10149,23.0,74162.3,21.81,-11.59,-11.07,0,*41
1530972206.07,10150,23.0,74160.5,21.81,-11.07,-10.49,0,*49
1530972207.29,10151,22.94,74158.8,21.81,-10.53,-10.09,0,*4C
1530972208.53,10152,23.0,74164.0,21.85,-10.05,-9.61,0,*7E
1530972209.74,10153,23.0,74162.5,21.87,-10.45,-10.15,0,*42
1530972210.97,10154,23.0,74160.5,21.87,-11.29,-11.23,0,*4A
1530972212.18,10155,23.0,74162.8,21.87,-13.23,-13.23,0,*41
1530972213.4,10156,23.0,74160.8,21.87,-13.69,-13.79,0,*43
1530972214.63,10157,23.0,74160.8,21.83,-12.11,-12.29,0,*4C
1530972215.86,10158,23.0,74160.0,21.85,-11.15,-11.45,0,*4B
1530972217.12,10159,22.94,74162.3,21.85,-11.45,-11.81,0,*47
1530972218.37,10160,22.94,74160.8,21.85,-11.45,-11.81,0,*4D
1530972219.61,10161,23.0,74160.0,21.85,-11.01,-11.41,0,*40
1530972220.81,10162,23.0,74160.5,21.87,-10.31,-11.01,0,*47
1530972222.04,10163,23.0,74162.8,21.87,-10.01,-10.75,0,*47
1530972223.27,10164,23.0,74162.8,21.89,-10.27,-11.33,0,*49
1530972224.51,10165,22.94,74156.3,21.91,-9.83,-11.01,0,*76
1530972225.77,10166,23.0,74160.0,21.91,-9.41,-10.31,0,*79
1530972226.98,10167,23.0,74160.0,21.93,-8.97,-10.15,0,*76
1530972228.17,10168,23.0,74162.8,21.93,-9.67,-10.85,0,*7E
1530972229.41,10169,23.0,74160.8,21.95,-10.97,-12.25,0,*46
1530972230.63,10170,22.94,74158.5,21.93,-11.85,-13.11,0,*4C
1530972231.89,10171,23.0,74162.5,21.91,-12.29,-13.83,0,*41
1530972233.13,10172,23.0,74162.8,21.91,-11.45,-13.11,0,*40
1530972234.38,10173,23.0,74160.5,21.89,-11.67,-13.33,0,*48
1530972235.62,10174,23.0,74166.5,21.87,-10.63,-12.25,0,*42
1530972236.84,10175,23.0,74160.0,21.89,-10.45,-11.81,0,*44
1530972238.06,10176,23.0,74160.5,21.89,-9.53,-10.97,0,*7E
1530972239.29,10177,23.0,74162.8,21.89,-9.41,-10.57,0,*70
1530972240.59,10178,23.0,74162.0,21.91,-9.15,-10.41,0,*70
1530972241.82,10179,23.0,74160.5,21.93,-10.15,-11.55,0,*4F
1530972243.08,10180,23.0,74162.5,21.91,-10.49,-11.89,0,*43
1530972244.36,10181,23.0,74162.8,21.91,-10.79,-12.35,0,*45
1530972245.6,10182,23.0,74160.3,21.91,-11.01,-12.47,0,*4D
1530972246.82,10183,23.0,74158.3,21.93,-9.67,-11.29,0,*7C
1530972248.01,10184,23.0,74162.3,21.93,-9.93,-11.45,0,*7A
1530972249.23,10185,23.0,74160.3,21.93,-9.61,-11.23,0,*76
1530972250.45,10186,23.0,74160.5,21.93,-9.53,-11.15,0,*71
1530972251.67,10187,23.0,74164.3,21.93,-9.89,-11.81,0,*7A
1530972252.87,10188,23.0,74162.8,21.93,-10.27,-12.25,0,*44
1530972254.13,10189,23.0,74158.0,21.91,-9.15,-11.15,0,*7E
1530972255.36,10190,23.0,74164.5,21.95,-8.25,-10.19,0,*7D
1530972256.59,10191,23.0,74160.8,21.95,-8.63,-10.89,0,*77
1530972257.82,10192,23.0,74158.8,21.95,-9.05,-11.45,0,*74
1530972259.06,10193,23.0,74160.3,21.97,-8.25,-10.67,0,*75
1530972260.26,10194,23.0,74160.0,21.97,-7.87,-10.15,0,*70
1530972261.48,10195,23.0,74164.5,21.97,-8.07,-10.57,0,*70
1530972262.72,10196,23.0,74160.3,21.97,-7.73,-10.15,0,*79
1530972263.95,10197,23.0,74160.5,21.99,-7.83,-10.27,0,*78
1530972265.21,10198,23.0,74164.0,21.99,-8.17,-10.67,0,*71
1530972266.43,10199,23.0,74164.0,22.03,-8.59,-11.15,0,*7E
1530972267.69,10200,23.0,74164.8,22.03,-7.73,-9.93,0,*4D
1530972268.95,10201,23.0,74160.0,22.03,-7.73,-10.19,0,*76
1530972270.23,10202,23.0,74160.5,22.03,-8.51,-10.71,0,*74
1530972271.5,10203,23.0,74162.8,22.03,-7.61,-9.61,0,*40
1530972272.74,10204,23.0,74162.0,22.07,-7.27,-9.05,0,*43
1530972273.96,10205,23.0,74160.3,22.11,-6.89,-8.71,0,*42
1530972275.16,10206,23.0,74162.5,22.09,-7.11,-8.89,0,*4F
1530972276.38,10207,23.0,74162.3,22.11,-7.49,-9.01,0,*4B
1530972277.62,10208,23.0,74160.3,22.15,-8.21,-9.83,0,*4B
1530972278.83,10209,23.0,74160.5,22.13,-7.87,-9.61,0,*43
1530972280.04,10210,23.0,74162.8,22.15,-7.49,-8.89,0,*48
1530972281.24,10211,23.0,74160.8,22.13,-8.71,-9.89,0,*4A
1530972282.45,10212,23.0,74160.5,22.13,-9.11,-9.89,0,*4E
1530972283.66,10213,23.0,74160.0,22.13,-9.53,-9.89,0,*49
1530972284.87,10214,23.0,74162.3,22.13,-9.61,-9.67,0,*4F
1530972286.09,10215,23.0,74164.5,22.09,-9.15,-9.23,0,*46
1530972287.35,10216,23.0,74162.3,22.09,-11.89,-11.73,0,*45
1530972288.58,10217,23.0,74160.8,22.09,-13.01,-12.47,0,*42
1530972289.83,10218,23.0,74164.0,22.03,-12.29,-11.81,0,*45
1530972291.11,10219,23.0,74162.3,21.99,-12.15,-11.51,0,*46
1530972292.34,10220,23.0,74162.3,21.97,-11.89,-11.11,0,*40
1530972293.55,10221,23.0,74162.3,21.97,-10.97,-10.01,0,*4F
1530972294.77,10222,23.0,74162.5,21.97,-10.57,-9.61,0,*7E
1530972296.01,10223,23.0,74160.3,21.99,-8.03,-6.85,0,*4C
1530972297.27,10224,23.0,74162.5,21.99,-7.39,-6.23,0,*41
1530972298.52,10225,23.0,74166.3,22.05,-6.97,-5.89,0,*40
1530972299.77,10226,23.0,74160.3,22.07,-7.73,-6.73,0,*4C
1530972301.01,10227,23.0,74162.3,22.11,-7.91,-6.73,0,*46
1530972302.26,10228,23.0,74162.5,22.11,-7.57,-6.59,0,*4B
1530972303.47,10229,23.0,74164.5,22.13,-7.99,-7.19,0,*4F
1530972304.71,10230,23.0,74162.5,22.17,-7.65,-6.97,0,*47
1530972305.93,10231,23.0,74162.3,22.19,-7.23,-6.43,0,*43
1530972307.17,10232,23.0,74162.5,22.25,-7.43,-6.89,0,*4F
1530972308.4,10233,23.0,74162.5,22.27,-7.01,-6.51,0,*4F
1530972309.63,10234,23.0,74162.5,22.29,-7.01,-6.43,0,*45
1530972310.86,10235,23.0,74162.8,22.31,-6.97,-6.43,0,*43
1530972312.07,10236,23.0,74160.5,22.33,-6.81,-6.39,0,*48
1530972313.32,10237,23.0,74160.0,22.37,-6.97,-6.59,0,*4C
1530972314.56,10238,23.0,74166.3,22.41,-7.39,-7.11,0,*4A
1530972315.8,10239,23.0,74162.5,22.41,-6.97,-6.69,0,*40
1530972317.05,10240,23.0,74162.8,22.43,-7.05,-7.01,0,*49
1530972318.27,10241,23.0,74162.3,22.47,-7.53,-7.43,0,*49
1530972319.54,10242,23.0,74160.5,22.49,-7.95,-8.07,0,*41
1530972320.76,10243,23.0,74160.3,22.49,-8.55,-8.75,0,*46
1530972322.03,10244,23.0,74162.5,22.49,-7.65,-8.07,0,*48
1530972323.28,10245,23.0,74158.3,22.49,-7.35,-7.87,0,*4B
1530972324.5,10246,23.0,74162.0,22.51,-7.73,-8.45,0,*42
1530972325.74,10247,23.0,74162.5,22.53,-6.43,-7.31,0,*4F
1530972326.96,10248,23.0,74162.3,22.55,-6.97,-8.33,0,*42
1530972328.2,10249,23.0,74162.0,22.55,-7.99,-9.41,0,*48
1530972329.47,10250,23.0,74164.3,22.57,-7.77,-9.41,0,*42
1530972330.69,10251,23.0,74160.0,22.57,-7.11,-8.89,0,*46
1530972331.91,10252,23.0,74160.5,22.59,-7.01,-9.01,0,*4B
1530972333.18,10253,23.0,74162.0,22.57,-5.31,-7.27,0,*4F
1530972334.38,10254,23.0,74160.5,22.59,-4.21,-6.05,0,*47
1530972335.57,10255,23.0,74164.5,22.63,-4.13,-5.97,0,*46
1530972336.79,10256,23.0,74162.3,22.67,-3.87,-5.93,0,*4F
1530972338.04,10257,23.0,74162.5,22.71,-3.71,-5.89,0,*4B
1530972339.31,10258,23.0,74164.0,22.73,-3.47,-5.73,0,*46
1530972340.55,10259,23.0,74164.3,22.77,-3.31,-5.77,0,*46
1530972341.77,10260,23.0,74160.3,22.79,-3.35,-5.81,0,*4F
1530972342.99,10261,23.0,74162.8,22.83,-3.51,-6.09,0,*4A
1530972344.21,10262,23.0,74160.8,22.85,-4.01,-6.73,0,*40
1530972345.46,10263,23.0,74164.0,22.87,-4.25,-6.97,0,*4F
1530972346.68,10264,23.0,74160.3,22.89,-4.57,-7.31,0,*4E
1530972347.9,10265,23.0,74160.5,22.89,-5.65,-8.55,0,*42
1530972349.11,10266,23.0,74162.8,22.93,-4.93,-7.83,0,*46
1530972350.3,10267,23.0,74160.3,22.93,-5.55,-8.55,0,*48
1530972351.52,10268,23.0,74160.3,22.93,-5.61,-8.41,0,*45
1530972352.75,10269,23.0,74162.3,22.95,-5.73,-8.89,0,*45
1530972353.99,10270,23.0,74160.5,22.95,-5.93,-8.71,0,*44
1530972355.24,10271,23.0,74160.0,22.99,-5.77,-8.45,0,*44
1530972356.48,10272,23.0,74162.0,22.99,-5.65,-8.17,0,*43
1530972357.73,10273,23.0,74160.3,22.99,-6.43,-9.11,0,*42
1530972358.95,10274,23.0,74162.3,22.99,-6.73,-9.27,0,*43
1530972360.15,10275,23.0,74162.3,23.01,-6.23,-8.67,0,*42
1530972361.39,10276,23.0,74160.5,23.03,-5.85,-8.33,0,*4D
1530972362.65,10277,23.0,74160.8,23.03,-5.69,-8.11,0,*4E
1530972363.84,10278,23.06,74166.5,23.05,-5.97,-8.33,0,*46
1530972365.06,10279,23.0,74160.5,23.07,-7.23,-9.79,0,*47
1530972366.28,10280,23.0,74160.5,23.07,-7.87,-10.23,0,*78
1530972367.5,10281,23.0,74160.3,23.05,-9.19,-11.33,0,*72
1530972368.72,10282,23.0,74162.3,23.05,-9.31,-11.51,0,*7F
1530972369.93,10283,23.0,74162.0,23.05,-8.63,-10.57,0,*7F
1530972371.12,10284,23.0,74166.5,23.05,-7.11,-8.75,0,*4B
1530972372.34,10285,23.0,74160.3,23.05,-6.39,-7.91,0,*44
1530972373.56,10286,23.0,74166.0,23.07,-7.39,-8.67,0,*42
1530972374.8,10287,23.0,74162.5,23.09,-7.35,-8.51,0,*44
1530972376.01,10288,23.06,74166.5,23.15,-7.53,-8.59,0,*4E
1530972377.24,10289,23.0,74162.5,23.15,-7.77,-8.67,0,*44
1530972378.51,10290,23.0,74158.5,23.15,-8.81,-9.45,0,*4B
1530972379.73,10291,23.0,74162.3,23.17,-8.41,-9.01,0,*44
1530972380.98,10292,23.0,74162.5,23.17,-8.75,-9.41,0,*44
1530972382.2,10293,23.0,74162.8,23.19,-8.67,-9.11,0,*4D
1530972383.43,10294,23.0,74162.8,23.21,-8.93,-9.19,0,*42
1530972384.68,10295,23.0,74160.0,23.21,-9.31,-9.49,0,*4F
1530972385.91,10296,23.0,74162.3,23.23,-10.79,-10.97,0,*41
1530972387.13,10297,23.0,74162.8,23.23,-9.97,-10.71,0,*70
1530972388.37,10298,23.0,74158.3,23.23,-10.97,-12.07,0,*44
1530972389.62,10299,23.0,74160.5,23.21,-9.61,-11.15,0,*76
1530972390.87,10300,23.0,74160.5,23.21,-7.91,-9.79,0,*45
1530972392.11,10301,23.0,74162.0,23.21,-7.35,-9.67,0,*45
1530972393.37,10302,23.0,74160.8,23.21,-7.91,-10.31,0,*73
1530972394.62,10303,23.0,74162.5,23.21,-7.69,-10.05,0,*72
1530972395.9,10304,23.0,74162.3,23.21,-6.93,-9.45,0,*4D
1530972397.15,10305,23.06,74160.8,23.21,-6.81,-9.53,0,*48
1530972398.37,10306,23.0,74162.3,23.23,-6.63,-9.27,0,*46
1530972399.59,10307,23.06,74160.5,23.25,-6.05,-9.01,0,*45
1530972400.84,10308,23.0,74162.3,23.25,-5.81,-8.85,0,*48
1530972402.07,10309,23.0,74160.5,23.23,-6.93,-10.09,0,*72
1530972403.33,10310,23.06,74164.8,23.25,-5.11,-7.95,0,*46
1530972404.61,10311,23.0,74162.3,23.25,-5.31,-8.07,0,*41
1530972405.83,10312,23.0,74160.5,23.27,-6.77,-9.53,0,*41
1530972407.11,10313,23.06,74160.5,23.29,-6.93,-9.49,0,*4F
1530972408.32,10314,23.0,74160.8,23.27,-6.27,-8.25,0,*42
1530972409.54,10315,23.06,74162.5,23.29,-6.55,-8.29,0,*44
1530972410.79,10316,23.0,74160.8,23.29,-7.43,-8.93,0,*40
1530972412.04,10317,23.06,74160.5,23.29,-7.57,-8.93,0,*44
1530972413.24,10318,23.0,74160.3,23.31,-7.53,-8.37,0,*48
1530972414.47,10319,23.0,74160.0,23.33,-7.95,-8.67,0,*44
1530972415.76,10320,23.0,74158.3,23.33,-11.93,-12.75,0,*47
1530972416.99,10321,23.0,74158.3,23.31,-12.21,-12.65,0,*4F
1530972418.2,10322,23.06,74160.8,23.27,-9.79,-10.15,0,*79
1530972419.44,10323,23.0,74162.3,23.29,-9.67,-9.61,0,*42
1530972420.73,10324,23.06,74162.5,23.29,-11.59,-11.59,0,*43
1530972421.99,10325,23.0,74160.8,23.29,-11.41,-11.29,0,*4C
1530972423.27,10326,23.06,74160.8,23.29,-11.81,-11.85,0,*45
1530972424.5,10327,23.06,74162.5,23.29,-10.89,-10.85,0,*4C
1530972425.7,10328,23.06,74160.0,23.27,-11.11,-10.85,0,*4D
1530972426.94,10329,23.0,74156.8,23.29,-11.45,-11.11,0,*4F
1530972428.16,10330,23.0,74160.8,23.27,-11.19,-10.75,0,*43
1530972429.42,10331,23.0,74160.0,23.29,-11.33,-11.01,0,*46
1530972430.67,10332,23.0,74160.8,23.29,-11.45,-10.97,0,*4A
1530972431.88,10333,23.0,74160.0,23.31,-11.41,-10.97,0,*46
1530972433.12,10334,23.0,74160.0,23.33,-10.93,-10.19,0,*4B
1530972434.38,10335,23.06,74162.8,23.33,-10.71,-10.01,0,*4F
1530972435.63,10336,23.06,74160.8,23.33,-11.55,-10.85,0,*47
1530972436.87,10337,23.06,74162.5,23.33,-13.51,-12.93,0,*45
1530972438.08,10338,23.06,74162.3,23.31,-12.93,-12.21,0,*4E
1530972439.29,10339,23.06,74162.0,23.31,-11.23,-10.45,0,*47
1530972440.5,10340,23.0,74158.8,23.31,-11.23,-10.45,0,*49
1530972441.76,10341,23.06,74164.0,23.33,-11.89,-11.15,0,*4E
1530972443.01,10342,23.06,74162.5,23.33,-13.51,-12.83,0,*46
1530972444.22,10343,23.0,74160.0,23.31,-13.11,-12.47,0,*49
1530972445.48,10344,23.06,74164.3,23.33,-13.11,-12.53,0,*49
1530972446.71,10345,23.06,74162.5,23.31,-15.49,-14.83,0,*4A
1530972447.95,10346,23.06,74166.0,23.27,-15.89,-15.25,0,*4F
1530972449.17,10347,23.0,74156.3,23.23,-14.65,-13.87,0,*47
1530972450.42,10348,23.06,74162.5,23.23,-12.11,-11.29,0,*4B
1530972451.64,10349,23.06,74162.5,23.23,-11.41,-10.57,0,*44
1530972452.89,10350,23.06,74160.3,23.25,-11.73,-10.93,0,*43
1530972454.15,10351,23.06,74160.0,23.23,-11.63,-10.67,0,*4E
1530972455.41,10352,23.06,74160.5,23.25,-11.37,-10.49,0,*46
1530972456.64,10353,23.06,74160.8,23.25,-11.23,-10.49,0,*42
1530972457.91,10354,23.0,74160.3,23.29,-11.29,-10.45,0,*4F
1530972459.17,10355,23.06,74158.8,23.27,-11.59,-10.75,0,*44
1530972460.43,10356,23.06,74160.3,23.29,-11.85,-11.11,0,*4B
1530972461.71,10357,23.0,74160.3,23.29,-12.11,-11.33,0,*44
1530972462.99,10358,23.06,74160.5,23.29,-12.71,-11.93,0,*47
1530972464.28,10359,23.06,74162.3,23.29,-12.71,-11.85,0,*41
1530972465.57,10360,23.06,74162.5,23.29,-11.59,-10.75,0,*4C
1530972466.78,10361,23.06,74160.5,23.31,-11.15,-10.19,0,*46
1530972468.04,10362,23.06,74160.3,23.33,-11.07,-10.31,0,*4E
1530972469.28,10363,23.06,74160.0,23.33,-10.97,-10.15,0,*41
1530972470.52,10364,23.06,74160.8,23.33,-10.97,-10.27,0,*47
1530972471.75,10365,23.06,74162.0,23.39,-11.89,-11.15,0,*42
1530972473.01,10366,23.06,74162.5,23.37,-12.07,-11.23,0,*4F
1530972474.26,10367,23.06,74160.0,23.37,-12.07,-11.23,0,*4E
1530972475.55,10368,23.06,74160.0,23.37,-12.07,-11.33,0,*40
1530972476.81,10369,23.06,74162.8,23.37,-11.45,-10.75,0,*47
1530972478.05,10370,23.06,74162.5,23.39,-11.45,-10.71,0,*45
1530972479.28,10371,23.06,74162.3,23.41,-11.41,-10.57,0,*4B
1530972480.51,10372,23.06,74160.5,23.41,-11.41,-10.57,0,*48
1530972481.8,10373,23.06,74158.8,23.41,-11.37,-10.41,0,*4F
1530972483.05,10374,23.06,74162.8,23.41,-11.55,-10.57,0,*4B
1530972484.26,10375,23.06,74160.8,23.43,-11.41,-10.57,0,*4D
1530972485.49,10376,23.06,74160.8,23.43,-11.77,-10.97,0,*47
1530972486.72,10377,23.06,74160.3,23.43,-12.11,-11.41,0,*4F
1530972487.97,10378,23.06,74160.3,23.45,-12.79,-12.03,0,*4D
1530972489.23,10379,23.06,74160.8,23.41,-13.51,-12.83,0,*4B
1530972490.45,10380,23.06,74162.5,23.41,-13.69,-13.07,0,*4B
1530972491.68,10381,23.06,74162.8,23.41,-13.69,-12.93,0,*46
1530972492.91,10382,23.06,74162.5,23.39,-16.03,-15.43,0,*49
1530972494.18,10383,23.06,74164.3,23.33,-16.09,-15.49,0,*42
1530972495.42,10384,23.06,74160.8,23.31,-16.37,-15.81,0,*4E
1530972496.66,10385,23.06,74162.5,23.27,-15.01,-14.43,0,*41
1530972497.93,10386,23.06,74158.3,23.25,-15.57,-14.75,0,*46
1530972499.19,10387,23.06,74160.8,23.23,-13.33,-12.53,0,*47
1530972500.47,10388,23.06,74158.8,23.25,-12.57,-11.73,0,*4C
1530972501.7,10389,23.06,74160.0,23.25,-12.29,-11.45,0,*41
1530972502.96,10390,23.06,74160.5,23.25,-14.61,-13.83,0,*4B
1530972504.21,10391,23.06,74162.3,23.25,-14.69,-14.01,0,*4F